Tucumcari, NM

1:01 AM MDT on October 17, 2017 (GMT -0600)
Tucumcari Municipal

Weather History for KTCC - February, 2014

Change the Weather History Date:

Friday, February 28, 2014

  Actual Average Record
Temperature  
Mean Temperature 59 °F -  
Max Temperature 73 °F 61 °F 84 °F (2006)
Min Temperature 45 °F 31 °F 3 °F (1962)
Degree Days  
Heating Degree Days 6    
Growing Degree Days 9 (Base 50)    
Moisture  
Dew Point 18 °F    
Average Humidity 23    
Maximum Humidity 41    
Minimum Humidity 7    
Precipitation  
Precipitation 0.00 in - - ()
Sea Level Pressure  
Sea Level Pressure 29.63 in    
Wind  
Wind Speed 24 mph (West)    
Max Wind Speed 33 mph    
Max Gust Speed 45 mph    
Visibility 10 miles    
Events      
Averages and records for this station are not official NWS values.
T = Trace of Precipitation, MM = Missing Value Source: NWS Daily Summary

Daily Weather History Graph

Daily Weather History Graph

Search for Another Location

Airport or City:

Trip Planner

Search our weather history database for the weather conditions in past years. The results will help you decide how hot, cold, wet, or windy it might be!

Date:

Astronomy

Feb. 28, 2014 Rise Set
Actual Time 6:25 AM MST 5:49 PM MST
Civil Twilight 5:59 AM MST 6:14 PM MST
Nautical Twilight 5:30 AM MST 6:44 PM MST
Astronomical Twilight 5:00 AM MST 7:13 PM MST
Moon 5:40 AM MST (2/28) 5:28 PM MST (2/28)
Length of Visible Light 12h 14m
Length of Day
11h 24m
Waning Crescent, 0% of the Moon is Illuminated
Feb 28
Waning Crescent
Mar 1
New
Mar 8
First Quarter
Mar 16
Full
Mar 23
Last Quarter

Hourly Weather History & Observations

Time (MST) Temp. Windchill Dew Point Humidity Pressure Visibility Wind Dir Wind Speed Gust Speed Precip Events Conditions
12:53 AM 53.1 °F - 30.0 °F 41% 29.47 in 10.0 mi West 33.4 mph 44.9 mph N/A   Clear
1:53 AM 52.0 °F - 26.1 °F 37% 29.46 in 10.0 mi West 27.6 mph 38.0 mph N/A   Clear
2:53 AM 51.1 °F - 21.9 °F 32% 29.48 in 10.0 mi West 28.8 mph 34.5 mph N/A   Clear
3:53 AM 50.0 °F - 21.9 °F 33% 29.50 in 10.0 mi West 23.0 mph - N/A   Clear
4:53 AM 50.0 °F - 23.0 °F 35% 29.54 in 10.0 mi West 26.5 mph - N/A   Clear
5:53 AM 48.9 °F - 23.0 °F 36% 29.58 in 10.0 mi West 26.5 mph 33.4 mph N/A   Clear
6:53 AM 48.9 °F - 21.0 °F 33% 29.62 in 10.0 mi WNW 24.2 mph 31.1 mph N/A   Clear
7:53 AM 55.0 °F - 21.9 °F 28% 29.65 in 10.0 mi NW 20.7 mph 29.9 mph N/A   Clear
8:53 AM 57.9 °F - 21.0 °F 24% 29.66 in 10.0 mi WNW 32.2 mph 36.8 mph N/A   Clear
9:53 AM 62.1 °F - 17.1 °F 18% 29.65 in 10.0 mi WNW 25.3 mph 34.5 mph N/A   Clear
10:53 AM 66.9 °F - 15.1 °F 14% 29.65 in 10.0 mi NW 17.3 mph - N/A   Clear
11:53 AM 70.0 °F - 9.0 °F 9% 29.65 in 10.0 mi WNW 21.9 mph 27.6 mph N/A   Clear
12:53 PM 72.0 °F - 3.9 °F 7% 29.60 in 10.0 mi West 19.6 mph 25.3 mph N/A   Clear
1:53 PM 72.0 °F - 10.9 °F 10% 29.60 in 10.0 mi West 17.3 mph 24.2 mph N/A   Clear
2:53 PM 72.0 °F - 10.0 °F 9% 29.60 in 10.0 mi WSW 10.4 mph - N/A   Clear
3:53 PM 73.0 °F - 10.0 °F 9% 29.61 in 10.0 mi WSW 13.8 mph 21.9 mph N/A   Clear
4:53 PM 71.1 °F - 19.0 °F 14% 29.62 in 10.0 mi West 24.2 mph 36.8 mph N/A   Clear
5:53 PM 66.9 °F - 17.1 °F 15% 29.65 in 10.0 mi West 23.0 mph - N/A   Clear
6:53 PM 64.9 °F - 19.9 °F 18% 29.68 in 10.0 mi West 20.7 mph 29.9 mph N/A   Clear
7:53 PM 62.1 °F - 21.0 °F 21% 29.71 in 10.0 mi West 12.7 mph - N/A   Clear
8:53 PM 57.9 °F - 21.0 °F 24% 29.74 in 10.0 mi West 10.4 mph - N/A   Clear
9:53 PM 54.0 °F - 19.9 °F 26% 29.76 in 10.0 mi SW 5.8 mph - N/A   Clear
10:53 PM 45.0 °F 42.6 °F 19.0 °F 36% 29.78 in 10.0 mi West 4.6 mph - N/A   Clear
11:53 PM 46.0 °F - 19.0 °F 34% 29.77 in 10.0 mi Calm Calm - N/A   Clear